Regional Weather Roundup
Issued by NWS

Home | Current Version | Previous Version | Graphics & Text | Print | Product List | Glossary On
Versions: 1 2 3 4 5 6 7 8 9 10 11 12 13 14 15 16 17 18 19 20 21 22 23 24 25 26 27 28 29 30 31 32 33 34 35 36 37 38 39 40 41 42 43 44 45 46 47 48 49 50
000
ASUS43 KDMX 212106
RWRIA

WEATHER ROUNDUP FOR IOWA
NATIONAL WEATHER SERVICE DES MOINES IA
300 PM CST TUE NOV 21 2017

NOTE: "FAIR" INDICATES FEW OR NO CLOUDS BELOW 12,000 FEET WITH NO
SIGNIFICANT WEATHER AND/OR OBSTRUCTIONS TO VISIBILITY.

* - THESE STATIONS ARE NOT NWS STATIONS...THUS NOT UNDER NWS
QUALITY CONTROL.  THEY ALSO DO NOT REPORT WEATHER SUCH
AS PRECIPITATION OR FOG.

IAZ001>003-012>014-020>022-031>034-043>046-212200-
   NORTHWEST IOWA

CITY           SKY/WX    TMP DP  RH WIND       PRES   REMARKS
CARROLL *      SUNNY     32  14  47 NW26G32   30.22S WCI  18
CHEROKEE *     SUNNY     30  10  43 N21G26    30.27R WCI  18
DENISON *      SUNNY     32  12  43 NW15G29   30.28R WCI  22
LE MARS *      SUNNY     30  10  43 MISG      30.30R
ORANGE CITY *  SUNNY     30  10  43 N18G24    30.28R WCI  18
SHELDON *      SUNNY     28   9  43 NW23      30.25R WCI  14
SIOUX CITY     SUNNY     30  11  45 NW24G30   30.32R WCI  16
SPENCER        SUNNY     31   8  38 N23G31    30.25R WCI  18
STORM LAKE *   SUNNY     30  10  43 NW21G26   30.24R WCI  17
$$

IAZ055>058-069>071-079>083-090>094-212200-
   SOUTHWEST IOWA

CITY           SKY/WX    TMP DP  RH WIND       PRES   REMARKS
ATLANTIC *     SUNNY     32  14  47 N21G31    30.24R WCI  20
AUDUBON *      SUNNY     34  12  40 NW18G25   30.23S WCI  23
CLARINDA *     SUNNY     36  16  44 N18       30.27R WCI  25
COUNCIL BLFS * SUNNY     32  14  47 NW21G28   30.27R WCI  20
CRESTON *      SUNNY     34  16  47 N24G31    30.22R WCI  21
HARLAN  *      SUNNY     32  14  47 NW20G28   30.30R WCI  20
LAMONI         SUNNY     36  17  46 NW17G26   30.19R WCI  26
RED OAK *      SUNNY     34  14  44 NW20G31   30.27R WCI  22
SHENANDOAH *   SUNNY     34  16  47 N20G31    30.28R WCI  22
$$

IAZ047>049-059>061-072>074-084-212200-
   CENTRAL IOWA

CITY           SKY/WX    TMP DP  RH WIND       PRES   REMARKS
AMES           SUNNY     34  17  50 N23G36    30.19R WCI  22
ANKENY *       SUNNY     34  16  47 NW13G25   30.21R WCI  25
BOONE *        MOSUNNY   32  14  47 NW22      30.19R WCI  19
CHARITON *     SUNNY     36  18  48 NW18G32   30.17R WCI  25
DES MOINES     SUNNY     35  15  44 N22G30    30.20R WCI  23
GRINNELL*      SUNNY     33  18  54 NW22G28   30.15R WCI  21
KNOXVILLE *    SUNNY     36  14  41 NW18G29   30.16R WCI  25
MARSHALLTOWN   SUNNY     33  17  51 NW25G33   30.15R WCI  20
NEWTON *       SUNNY     34  16  47 NW21G30   30.16R WCI  22
PELLA *        SUNNY     35  17  47 NW22G30   30.18R WCI  23
PERRY *          N/A     33  13  42 NW15G31   30.22R WCI  23
$$

IAZ004>006-015-016-023>025-035-036-212200-
   NORTH CENTRAL IOWA

CITY           SKY/WX    TMP DP  RH WIND       PRES   REMARKS
ALGONA *       SUNNY     28  12  50 NW20G35   30.21R WCI  15
CLARION *      SUNNY     30  14  51 NW26G32   30.20R WCI  16
ESTHERVILLE    SUNNY     27  10  49 N21G33    30.22R WCI  13
FORT DODGE *   SUNNY     31  14  49 NW13G25   30.22R WCI  21
MASON CITY     SUNNY     29  13  51 NW28G33   30.18R WCI  14
FOREST CITY *    N/A     30  14  51 NW23G31   30.19R WCI  17
WEBSTER CITY * FLURRIES  32  14  47 NW29G36   30.18R WCI  18
IOWA FALLS *     N/A     32  17  54 NW23G32   30.16R WCI  20
$$

IAZ007>011-017>019-026>030-037>042-050>054-066-212200-
   NORTHEAST IOWA

CITY           SKY/WX    TMP DP  RH WIND       PRES   REMARKS
CEDAR RAPIDS   SUNNY     32  16  51 N22G31    30.09R WCI  19
CHARLES CITY * SUNNY     30  16  55 NW17G29   30.14R WCI  18
CLINTON *      MOSUNNY   34  20  56 NW24G30   30.05R WCI  21
DECORAH *      SUNNY     30  14  51 NW18G25   30.09R WCI  18
DUBUQUE        SUNNY     32  16  51 NW21G29   30.04R WCI  20
MONTICELLO *   SUNNY     34  16  47 NW23G31   30.07R WCI  22
OELWEIN *      SUNNY     30  18  59 NW23G33   30.11R WCI  17
WATERLOO       SUNNY     31  15  52 NW25      30.13R WCI  17
$$

IAZ064-065-067-068-078-212200-
   EAST CENTRAL IOWA

CITY           SKY/WX    TMP DP  RH WIND       PRES   REMARKS
DAVENPORT      SUNNY     33  18  53 NW22G32   30.09R WCI  21
IOWA CITY      SUNNY     35  16  45 NW22G31   30.12R WCI  23
MT. PLEASANT * SUNNY     35  18  50 NW16G22   30.11R WCI  25
MUSCATINE *    SUNNY     36  18  48 NW16G25   30.11R WCI  26
QUAD CITIES    SUNNY     36  18  48 NW18G28   30.06R WCI  26
$$

IAZ062-063-075>077-085>089-095>099-212200-
   SOUTHEAST IOWA

CITY           SKY/WX    TMP DP  RH WIND       PRES   REMARKS
BURLINGTON     SUNNY     36  20  52 NW15G32   30.09R WCI  27
FAIRFIELD *    SUNNY     34  18  51 NW24G32   30.11R WCI  21
FORT MADISON * SUNNY     37  21  52 NW21      30.11R WCI  27
KEOKUK *       SUNNY     37  19  48 NW15G30   30.10R WCI  28
OSKALOOSA *      N/A     34  18  53 NW23G33   30.15R WCI  22
OTTUMWA        SUNNY     35  17  47 NW24G33   30.15R WCI  23
WASHINGTON *   SUNNY     34  18  51 NW23G32   30.13R WCI  22
$$

ABBREVIATIONS USED IN REMARKS
   TC - TEMPERATURES IN CELSIUS
  WCI - WIND CHILL INDEX
   HX - HEAT INDEX
  VSB - VISIBILITY
$$




USA.gov is the U.S. government's official web portal to all federal, state and local government web resources and services.